This demonstration page uses our WeatherBlox Daily Observations layout. Learn more.

Left ArrowRight Arrow

Hourly Observations for April 7, 2019

Temp ( °F °C ) Dew Point ( °F °C ) Humidity (%) Winds ( mph kmh ) Pressure ( in mb ) Visibility ( mi km ) Precip ( " mm )
12:15 am 00:15 Clear 57 13.8 53 11.5 86 86 SE 8 13 29.76 1008 10 16 N/A
12:35 am 00:35 Clear 57 14 53 11.5 85 85 SE 10 17 29.76 1008 10 16 N/A
12:55 am 00:55 Clear 57 13.7 52 11.3 86 86 SSE 10 17 29.76 1008 10 16 N/A
1:15 am 01:15 Clear 55 12.9 52 10.9 88 88 S 10 17 29.76 1008 10 16 N/A
1:35 am 01:35 Clear 54 12 51 10.4 90 90 S 5 7 29.76 1008 7 11 N/A
1:55 am 01:55 Clear 53 11.5 50 10.2 92 92 SE 6 9 29.77 1008 7 11 N/A
2:15 am 02:15 Clear 53 11.7 51 10.3 91 91 SSE 7 11 29.77 1008 10 16 N/A
2:35 am 02:35 Clear 53 11.5 50 10 91 91 S 3 6 29.77 1008 10 16 N/A
2:55 am 02:55 Clear 53 11.5 49 9.7 89 89 SSW 7 11 29.76 1008 10 16 N/A
3:15 am 03:15 Clear 51 10.7 48 9 89 89 SSW 3 6 29.76 1008 10 16 N/A
3:35 am 03:35 Clear 49 9.7 47 8.5 92 92 N N/A 29.78 1009 7 11 N/A
3:55 am 03:55 Clear 50 10 48 9 94 94 WSW 3 6 29.77 1008 7 11 N/A
4:15 am 04:15 Clear 48 8.8 46 7.7 93 93 SW 5 7 29.78 1009 7 11 N/A
4:35 am 04:35 Clear with Mist and Fog 47 8.5 46 7.6 94 94 N N/A 29.79 1009 5 8 N/A
4:55 am 04:55 Clear 50 9.9 47 8.4 90 90 WNW 7 11 29.79 1009 10 16 N/A
5:15 am 05:15 Clear 50 10 44 6.5 79 79 WNW 14 22 29.79 1009 10 16 N/A
5:35 am 05:35 Clear 49 9.4 42 5.8 78 78 WNW 12 19 29.81 1009 10 16 N/A
5:55 am 05:55 Clear 48 8.7 42 5.3 79 79 WNW 13 20 29.82 1010 10 16 N/A
6:15 am 06:15 Clear 47 8.3 41 5 80 80 NW 13 20 29.84 1010 10 16 N/A
6:35 am 06:35 Clear 47 8.1 40 4.6 79 79 WNW 15 24 29.85 1011 10 16 N/A
6:55 am 06:55 Clear 47 8.6 40 4.5 76 76 NW 15 24 29.86 1011 10 16 N/A
7:15 am 07:15 Sunny 48 8.9 40 4.5 74 74 NW 20 31 29.87 1012 10 16 N/A
7:35 am 07:35 Sunny 50 9.8 43 6.3 79 79 NW 17 28 29.89 1012 10 16 N/A
7:55 am 07:55 Sunny 52 11.2 46 7.5 78 78 NNW 21 33 29.89 1012 10 16 N/A
8:15 am 08:15 Sunny 53 11.6 46 7.6 77 77 NNW 15 24 29.91 1013 10 16 N/A
8:35 am 08:35 Sunny 54 12.4 46 7.8 74 74 NNW 15 24 29.90 1013 10 16 N/A
8:55 am 08:55 Sunny 56 13.5 46 7.9 69 69 NW 14 22 29.90 1013 10 16 N/A
9:15 am 09:15 Sunny 58 14.2 47 8.2 67 67 NW 20 31 29.92 1013 10 16 N/A
9:35 am 09:35 Sunny 58 14.7 46 7.8 64 64 NW 22 35 29.92 1013 10 16 N/A
9:55 am 09:55 Sunny 60 15.5 44 6.9 57 57 NW 22 35 29.91 1013 10 16 N/A
10:15 am 10:15 Sunny 60 15.8 44 6.7 55 55 NNW 22 35 29.92 1013 10 16 N/A
10:35 am 10:35 Sunny 62 16.5 44 6.6 52 52 NNW 26 43 29.93 1014 10 16 N/A
10:55 am 10:55 Sunny 63 17.1 43 6.3 49 49 NNW 26 43 29.94 1014 10 16 N/A
11:15 am 11:15 Sunny 64 17.7 43 6 46 46 NNW 24 39 29.94 1014 10 16 N/A
11:35 am 11:35 Sunny 65 18.2 42 5.5 43 43 N 22 35 29.94 1014 10 16 N/A
11:55 am 11:55 Sunny 66 18.8 41 4.8 40 40 NNW 26 43 29.93 1014 10 16 N/A
12:15 pm 12:15 Sunny 67 19.5 40 4.5 37 37 NNW 23 37 29.93 1013 10 16 N/A
12:35 pm 12:35 Sunny 68 20.1 37 2.9 32 32 NNW 23 37 29.92 1013 10 16 N/A
12:55 pm 12:55 Sunny 69 20.6 36 2.2 30 30 NNW 24 39 29.92 1013 10 16 N/A
1:15 pm 13:15 Sunny 69 20.6 35 1.5 28 28 NNW 21 33 29.91 1013 10 16 N/A
1:35 pm 13:35 Sunny 70 21.3 32 -0.2 24 24 NNW 24 39 29.89 1012 10 16 N/A
1:55 pm 13:55 Sunny 71 21.6 31 -0.5 23 23 NNW 18 30 29.90 1012 10 16 N/A
2:15 pm 14:15 Sunny 72 22.1 31 -0.6 22 22 NW 26 43 29.89 1012 10 16 N/A
2:35 pm 14:35 Sunny 72 22.1 30 -1 21 21 NNW 21 33 29.88 1012 10 16 N/A
2:55 pm 14:55 Sunny 73 22.5 30 -1.2 21 21 NW 25 41 29.87 1012 10 16 N/A
3:15 pm 15:15 Sunny 73 22.6 28 -2.1 19 19 NW 26 43 29.86 1011 10 16 N/A
3:35 pm 15:35 Sunny 73 22.6 28 -2.5 19 19 NNW 25 41 29.86 1011 10 16 N/A
3:55 pm 15:55 Sunny 73 22.7 26 -3.2 18 18 NNW 21 33 29.85 1011 10 16 N/A
4:15 pm 16:15 Sunny 73 22.9 27 -2.8 18 18 N 18 30 29.86 1011 10 16 N/A
4:35 pm 16:35 Sunny 73 22.7 26 -3.5 17 17 NNW 18 30 29.86 1011 10 16 N/A
4:55 pm 16:55 Sunny 73 22.7 25 -3.7 17 17 N 8 13 29.85 1011 10 16 N/A
5:15 pm 17:15 Sunny 73 22.7 24 -4.3 16 16 N 8 13 29.86 1011 10 16 N/A
5:35 pm 17:35 Sunny 73 22.7 25 -4 17 17 N 9 15 29.86 1011 10 16 N/A
5:55 pm 17:55 Sunny 73 22.7 25 -4.1 16 16 NNW 8 13 29.85 1011 10 16 N/A
6:15 pm 18:15 Sunny 73 22.5 23 -5 15 15 NNW 9 15 29.86 1011 10 16 N/A
6:35 pm 18:35 Sunny 72 22.2 25 -3.8 17 17 N 6 9 29.86 1011 10 16 N/A
6:55 pm 18:55 Sunny 72 22 24 -4.3 17 17 N 5 7 29.87 1011 10 16 N/A
7:15 pm 19:15 Sunny 70 21.3 30 -0.9 23 23 N 5 7 29.87 1012 10 16 N/A
7:35 pm 19:35 Sunny 69 20.3 30 -1.3 23 23 N N/A 29.89 1012 10 16 N/A
7:55 pm 19:55 Sunny 66 19 28 -2.2 24 24 N N/A 29.89 1012 10 16 N/A
8:15 pm 20:15 Clear 64 17.7 29 -1.6 27 27 N N/A 29.90 1013 10 16 N/A
8:35 pm 20:35 Clear 60 15.3 32 -0.2 35 35 NE 3 6 29.91 1013 10 16 N/A
8:55 pm 20:55 Clear 59 14.9 31 -0.8 34 34 N N/A 29.93 1013 10 16 N/A
9:15 pm 21:15 Clear 55 12.6 32 0.2 43 43 SE 3 6 29.95 1014 10 16 N/A
9:35 pm 21:35 Clear 55 13 33 0.7 43 43 S 6 9 29.94 1014 10 16 N/A
9:55 pm 21:55 Clear 53 11.6 35 1.6 51 51 N N/A 29.96 1014 10 16 N/A
10:15 pm 22:15 Clear 54 12.3 33 0.4 44 44 N N/A 29.95 1014 10 16 N/A
10:35 pm 22:35 Clear 55 12.6 33 0.4 43 43 N N/A 29.95 1014 10 16 N/A
10:55 pm 22:55 Clear 49 9.2 38 3.2 66 66 S 3 6 29.99 1016 10 16 N/A
11:15 pm 23:15 Clear 51 10.3 36 2.2 58 58 S 5 7 29.98 1015 10 16 N/A
11:35 pm 23:35 Clear 48 9.1 36 2.3 63 63 SSE 6 9 29.99 1016 10 16 N/A
11:55 pm 23:55 Clear 49 9.7 35 1.9 59 59 S 7 11 29.99 1016 10 16 N/A

Powered by AerisWeather